Powrót do katalogu

BEIDOU 3M1

AktywnyNawigacjaMEO
NORAD 43001·PAYLOAD·🇨🇳 China

Wystrzelony Nov 5, 2017 z Xichang Satellite Launch Center

Loading…

Następne Przeloty (najbliższe 24 godziny)

TLE

ŚwieżeSource: CelesTrak SupGP

Epoka: Sep 15, 2026, 00:00 UTC

1 43001C 17069A   26258.00000000  .00000000  00000+0  00000+0 0  2580
2 43001  56.7747  60.1312 0007134 320.3881 170.5998  1.86231298    19

Śledź BEIDOU 3M1 w czasie rzeczywistym z AllMySat

Download on the App Store